Location: Unspecified
(35.7250°N, 0.0000°E)
Time: 13:43:35
(UTC+00:00)

Vanguard 1 Rocket - Pass Details

Date: 16 June 2019
Orbit: 652 x 4224 km, 34.3° (Epoch: 16 August)

Event Time Altitude Azimuth Distance (km) Brightness Sun altitude
Rises 19:50:38 0° 255° (WSW) 6,112 12.3 -6.4°
Reaches altitude 10° 19:55:28 10° 255° (WSW) 4,516 11.5 -7.2°
Maximum altitude 20:06:16 75° 172° (S) 1,244 8.0 -9.0°
Drops below altitude 10° 20:12:01 10° 88° (E) 2,502 9.2 -9.9°
Enters shadow 20:13:12 - 86° (E) 2,948 9.6 -10.1°
Sets 20:14:00 0° 86° (E) 3,258 - -10.2°
